www.pogodaiklimat.ru

Погода и климат >> Архив погоды >> Испания >> Лерида


ПОГОДА в Лериде

  • Прогноз погоды в Лериде
  • Монитор погоды в Лериде

АРХИВ ПОГОДЫ в Лериде

Время (UTC), дата Ветер
(напр.,м/с)
 
Видим.   Явления Облачность Т
(С)
Тd
(С)
f
(%)
Тe
(С)
Тes
(С)
Комфортность P
(гПа)
Po
(гПа)
Тmin
(С)
Tmax
(С)
R
(мм)
R24
(мм)
S
(см)
01 10.06 ЮЗ 2 10 км н/о +15.3 +5.2 51 +15 +15 1014.4 990.9
02 10.06 ЮЗ 3 3500 м н/о +15.9 +10.0 68 +15 +15 1014.2 990.8
03 10.06 ЮЗ 5 20 км н/о +15.2 +10.2 72 +14 +14 1014.2 990.7
04 10.06 ЮЗ 3 20 км н/о +14.5 +9.7 73 +14 +14 1014.3 990.8
05 10.06 ЮЗ 3 20 км н/о +14.6 +9.8 73 +14 +14 1014.7 991.2 0.0
06 10.06 ЮЗ 3 19 км 8/6 1000 м
[Sc Ci fib]
+14.7 +9.7 72 +14 +14 1015.3 991.8 +14.4 0.0
07 10.06 ЮЗ 4 20 км н/о +17.0 +9.4 61 +17 +17 1015.5 992.1
08 10.06 ЮЗ 3 20 км н/о +18.3 +9.6 57 +19 +19 1015.5 992.2
09 10.06 ЮЗ 3 30 км 5/0
[Ac trans Ci sp]
+19.1 +9.8 55 +20 +28 1015.3 992.1
10 10.06 ЮЗ 3 20 км н/о +21.4 +9.6 47 +23 +23 комфорт 1014.7 991.7
11 10.06 ЮЗ 4 20 км н/о +23.2 +9.6 42 +25 +25 комфорт 1013.9 991.1
12 10.06 З 5 35 км 3/0
[Ci fib]
+24.5 +8.4 36 +25 +35 комфорт 1013.3 990.6
13 10.06 З 4 20 км н/о +25.9 +9.3 35 +26 +26 жарко 1012.3 989.7
14 10.06 З 6 20 км н/о +26.6 +7.6 30 +26 +26 жарко 1011.5 989.0
15 10.06 З 5 20 км н/о +27.2 +7.1 28 +27 +27 жарко 1010.9 988.4
16 10.06 З 6 20 км н/о +26.5 +5.4 26 +26 +26 жарко 1010.9 988.3
17 10.06 З 6 20 км н/о +25.1 +3.1 24 +24 +24 комфорт 1010.7 988.0
18 10.06 З 6 19 км н/о +25.0 +5.2 28 +25 +25 комфорт 1010.6 987.9 +27.3
19 10.06 З 4 20 км н/о +22.5 +2.6 27 +22 +22 комфорт 1011.0 988.1
20 10.06 З 5 20 км н/о +20.0 +3.6 34 +20 +20 1012.0 988.9
21 10.06 ЮЗ 3 20 км н/о +18.4 +3.8 38 +19 +19 1013.0 989.8
22 10.06 ЮЗ 2 20 км н/о +16.9 +3.9 42 +17 +17 1013.6 990.2
23 10.06 ЮЗ 3 20 км н/о +16.9 +3.6 41 +17 +17 1014.0 990.6
00 11.06 З 2 20 км н/о +16.5 +3.5 42 +17 +17 1013.7 990.3
01 11.06 Ю 2 20 км в посл. час дождь н/о +15.5 +5.4 51 +15 +15 1013.2 989.7 0.0
02 11.06 ЮЗ 3 20 км н/о +14.9 +5.4 53 +14 +14 1012.7 989.2
03 11.06 Ю 4 16 км слаб. дождь н/о +13.4 +8.0 70 +12 +12 1012.9 989.3 0.0
04 11.06 З 3 9000 м дождь н/о +12.1 +9.5 84 +11 +11 1012.6 988.9 0.8
05 11.06 ЮЗ 2 8000 м дождь н/о +11.6 +9.3 86 +11 +11 1013.0 989.3 0.8
06 11.06 ЮЗ 2 12 км слаб. дождь н/о +11.4 +10.0 91 +11 +11 1013.5 989.7 +11.4 2
07 11.06 ЮЗ 1 18 км слаб. дождь н/о +11.4 +10.0 91 +11 +11 1013.7 989.9 0.4
08 11.06 ЮЗ 2 19 км в посл. час дождь н/о +11.7 +9.8 88 +11 +11 1014.1 990.3 0.2
09 11.06 З 2 17 км слаб. дождь 10/0 1500 м
[Ac As]
+12.1 +10.5 90 +11 +15 1014.0 990.3 0.8
10 11.06 З 3 19 км слаб. дождь н/о +12.0 +10.2 89 +11 +11 1014.4 990.7 0.4
11 11.06 З 3 19 км слаб. морось н/о +12.2 +10.1 87 +11 +11 1014.2 990.5 0.0
12 11.06 З 4 20 км {дождь} 10/6 1000 м
[Frnb Ac As]
+13.9 +10.5 80 +13 +14 1014.2 990.6 0.4
13 11.06 ЮЗ 3 20 км в посл. час морось н/о +15.3 +11.1 76 +15 +15 1013.6 990.2 0.0
14 11.06 ЮЗ 3 20 км н/о +16.2 +9.4 64 +16 +16 1013.1 989.7
15 11.06 ЮЗ 4 20 км в посл. час дождь {морось} н/о +18.0 +10.6 62 +18 +18 1012.3 989.1 0.0
16 11.06 Ю 3 20 км н/о +19.0 +10.3 57 +20 +20 1011.7 988.6
17 11.06 ЮЗ 5 20 км н/о +20.6 +6.9 41 +22 +22 комфорт 1011.0 988.0
18 11.06 З 6 20 км дымка н/о +20.4 +4.4 35 +21 +21 комфорт 1011.4 988.4 +21.0
19 11.06 З 5 20 км н/о +18.0 +4.5 41 +18 +18 1012.2 989.0
20 11.06 З 3 20 км н/о +15.6 +4.9 49
21 11.06 ЮЗ 4 20 км н/о +13.3 +5.4 59 +12 +12 1014.1 990.4
22 11.06 ЮЗ 2 20 км н/о +12.3 +5.0 61 +12 +12 1014.6 990.9
23 11.06 ЮЗ 2 20 км н/о +11.3 +5.2 66 +10 +10 1014.8 991.0
00 12.06 ЮЗ 2 20 км н/о +10.1 +5.5 73 +9 +9 1014.7 990.8
01 12.06 З 2 20 км н/о +9.4 +5.6 77 +8 +8 1015.0 991.0
02 12.06 З 3 20 км н/о +8.7 +5.8 82 +6 +6 1015.1 991.0
03 12.06 СЗ 1 20 км н/о +7.7 +5.3 85 +7 +7 1015.1 991.0
04 12.06 З 1 20 км н/о +7.0 +5.0 87 +6 +6 1015.6 991.4
05 12.06 З 2 20 км н/о +7.2 +5.3 88 +5 +5 1016.0 991.8
06 12.06 ЮЗ 1 20 км ясно +10.0 +6.5 79 +10 +11 1016.3 992.3 +6.9
07 12.06 Ю 2 20 км н/о +12.8 +7.0 68 +12 +12 1016.6 992.9
08 12.06 Ю 2 20 км н/о +15.3 +7.1 58 +15 +15 1016.7 993.2
09 12.06 ЮЗ 3 20 км н/о +16.2 +6.0 51 +16 +16 1016.7 993.2
10 12.06 З 2 20 км н/о +18.3 +4.5 40 +19 +19 1016.3 993.0
11 12.06 З 2 20 км н/о +19.7 +3.4 34 +21 +21 комфорт 1015.8 992.6
12 12.06 З 3 20 км н/о +21.3 +2.5 29 +21 +21 комфорт 1015.1 992.0
13 12.06 СЗ 3 19 км н/о +22.1 +3.2 29 +22 +22 комфорт 1014.5 991.5
14 12.06 ЮВ 2 20 км н/о +23.2 +2.1 25 +23 +23 комфорт 1013.8 990.9
15 12.06 В 2 20 км н/о +22.9 +2.9 27 +23 +23 комфорт 1013.4 990.5
16 12.06 В 2 20 км н/о +23.4 +2.8 26 +23 +23 комфорт 1012.7 989.9
17 12.06 В 1 20 км н/о +23.5 +2.3 25 +23 +23 комфорт 1012.1 989.3
18 12.06 В 2 20 км н/о +22.9 +2.4 26 +22 +22 комфорт 1012.3 989.4 +24.0
19 12.06 ЮВ 2 20 км н/о +21.5 +2.7 29 +21 +21 комфорт 1012.6 989.6
20 12.06 Ю 3 20 км н/о +18.8 +3.4 36 +19 +19 1013.2 990.0
21 12.06 Ю 2 20 км н/о +16.7 +3.7 42 +17 +17 1014.2 990.8
22 12.06 С 2 20 км н/о +16.7 +5.9 49 +17 +17 1014.8 991.4
23 12.06 СВ 2 20 км н/о +14.4 +6.7 60 +14 +14 1015.1 991.5
00 13.06 СВ 3 20 км н/о +13.4 +7.2 66 +13 +13 1015.0 991.3
01 13.06 СВ 2 20 км н/о +12.1 +7.2 72 +11 +11 1014.9 991.1
02 13.06 СВ 3 20 км н/о +11.3 +7.2 76 +10 +10 1014.6 990.8
03 13.06 СВ 3 20 км н/о +10.9 +6.8 76 +9 +9 1014.6 990.7
04 13.06 СВ 3 20 км н/о +10.7 +6.8 77 +9 +9 1014.8 990.9
05 13.06 СВ 4 20 км н/о +10.9 +7.6 80 +9 +9 1014.8 990.9
06 13.06 СВ 3 20 км 5/5 1000 м
[Sc]
+13.3 +8.8 74 +12 +13 1014.7 991.1 +10.6
07 13.06 СВ 3 20 км н/о +15.0 +9.4 69 +14 +14 1015.0 991.5
08 13.06 СВ 3 20 км н/о +18.8 +9.8 56 +20 +20 1014.5 991.3
09 13.06 В 3 25 км 6/6 600 м
[Sc]
+22.1 +10.6 48 +24 +29 комфорт 1014.3 991.4
10 13.06 В 2 20 км н/о +23.4 +11.1 46 +26 +26 жарко 1013.9 991.1
11 13.06 В 2 20 км н/о +24.6 +10.8 42 +26 +26 жарко 1013.2 990.5
12 13.06 СВ 3 30 км 6/3 1000 м
[Cu hum Ci sp]
+25.6 +10.6 39 +27 +37 жарко 1012.1 989.5
13 13.06 В 3 20 км н/о +26.7 +10.0 35
14 13.06 ЮВ 2 20 км н/о +27.6 +10.3 34 +28 +28 жарко 1010.4 988.0
15 13.06 В 5 20 км н/о +26.8 +7.8 30 +27 +27 жарко 1010.1 987.6
16 13.06 Ю 5 20 км н/о +24.5 +6.3 31 +24 +24 комфорт 1010.1 987.4
17 13.06 В 5 20 км н/о +24.5 +7.6 34 +25 +25 комфорт 1010.0 987.3
18 13.06 В 5 20 км н/о +23.6 +6.4 33 +24 +24 комфорт 1010.4 987.6 +28.1
19 13.06 В 5 20 км н/о +23.0 +5.9 33 +23 +23 комфорт 1010.7 987.9
20 13.06 В 3 20 км н/о +21.8 +6.8 38 +23 +23 комфорт 1011.2 988.3
21 13.06 СВ 3 20 км н/о +19.2 +8.2 49 +20 +20 1012.0 988.9
22 13.06 СВ 3 20 км н/о +17.7 +5.3 44 +18 +18 1012.7 989.4
23 13.06 СВ 3 20 км н/о +16.6 +5.2 47 +16 +16 1012.4 989.1
00 14.06 СВ 3 20 км н/о +16.9 +4.6 44 +17 +17 1012.1 988.8
01 14.06 СВ 2 20 км н/о +15.8 +5.4 50 +16 +16 1011.6 988.2
02 14.06 СВ 2 20 км н/о +15.9 +6.0 52 +16 +16 1010.1 986.8
03 14.06 СЗ 1 20 км н/о +15.6 +6.8 56 +17 +17 1008.7 985.4
04 14.06 ЮЗ 3 20 км н/о +14.5 +7.8 64 +14 +14 1009.6 986.2
05 14.06 З 3 20 км н/о +14.2 +8.2 67 +14 +14 1010.1 986.6
06 14.06 З 2 19 км н/о +14.7 +8.9 68 +15 +15 1010.3 986.9 +14.2
07 14.06 ЮЗ 2 20 км н/о +16.4 +8.9 61 +17 +17 1011.1 987.8
08 14.06 Ю 1 20 км н/о +19.2 +9.4 53 +21 +21 комфорт 1010.6 987.5
09 14.06 В 3 19 км осадки на расстоянии 9/5 600 м
[Cu Sc Ac cast Ci sp]
+21.8 +8.7 43 +23 +26 комфорт 1009.7 986.8
10 14.06 Ю 3 20 км н/о +22.4 +9.9 45 +24 +24 комфорт 1010.1 987.3
11 14.06 ЮЗ 4 20 км н/о +25.2 +9.9 38 +26 +26 жарко 1009.8 987.2
12 14.06 З 4 19 км дымка н/о +24.6 +9.3 38 +25 +25 комфорт 1010.3 987.6 0.0
13 14.06 ЮЗ 3 20 км в посл. час дождь н/о +24.4 +9.5 39 +25 +25 комфорт 1009.8 987.1 0.0
14 14.06 З 2 20 км н/о +26.9 +9.7 34 +27 +27 жарко 1009.3 986.8
15 14.06 ЮЗ 2 20 км н/о +28.4 +10.6 33 +29 +29 жарко 1008.8 986.5 0.0
16 14.06 Ю 2 20 км н/о +29.1 +10.7 32 +29 +29 жарко 1008.5 986.2
17 14.06 ЮВ 2 20 км н/о +28.9 +11.0 33 +29 +29 жарко 1008.4 986.1
18 14.06 СВ 2 20 км дымка н/о +28.4 +10.6 33 +29 +29 жарко 1008.4 986.1 +29.4
19 14.06 В 2 20 км н/о +26.4 +11.3 39 +28 +28 жарко 1009.1 986.6
20 14.06 ЮВ 2 20 км н/о +24.2 +13.1 50 +26 +26 жарко 1010.3 987.6
21 14.06 Ю 2 20 км н/о +22.1 +13.2 57 +25 +25 комфорт 1011.3 988.5
22 14.06 СВ 2 20 км н/о +20.9 +13.3 62 +24 +24 комфорт 1011.7 988.8
23 14.06 СВ 3 20 км н/о +19.3 +13.0 67 +21 +21 комфорт 1012.3 989.2
00 15.06 С 2 20 км н/о +18.9 +12.6 67 +20 +20 1012.5 989.4
01 15.06 З 1 20 км н/о +17.6 +12.5 72 +19 +19 1013.2 990.0
02 15.06 З 1 19 км н/о +16.4 +12.4 77 +17 +17 1013.8 990.5
03 15.06 ЮЗ 1 17 км н/о +15.1 +12.0 82 +16 +16 1014.8 991.3
04 15.06 ЮЗ 3 20 км н/о +15.9 +11.5 75 +16 +16 1015.6 992.2
05 15.06 З 3 20 км н/о +14.8 +11.4 80 +14 +14 1016.4 992.9
06 15.06 ЮЗ 3 25 км 6/3 1000 м
[Cu hum Ac trans Ci fib]
+15.7 +11.7 77 +15 +16 1016.9 993.4 +14.8
07 15.06 З 4 20 км н/о +17.9 +11.5 66 +18 +18 1017.5 994.2
08 15.06 ЮЗ 4 19 км н/о +19.0 +10.8 59 +20 +20 1017.8 994.6
09 15.06 З 4 35 км 3/0
[Ci fib]
+20.9 +11.0 53 +23 +31 комфорт 1017.6 994.5
10 15.06 З 4 20 км н/о +22.9 +11.0 47 +25 +25 комфорт 1017.1 994.2
11 15.06 З 5 20 км н/о +24.5 +10.0 40 +25 +25 комфорт 1016.8 994.0
12 15.06 З 5 45 км 3/3 1000 м
[Cu hum]
+26.5 +7.5 30 +26 +35 жарко 1016.4 993.7
13 15.06 З 5 18 км н/о +27.7 +5.3 24 +27 +27 жарко 1015.9 993.3
14 15.06 З 4 19 км н/о +28.3 +5.2 23 +27 +27 жарко 1015.5 993.0
15 15.06 З 5 20 км н/о +28.9 +5.7 23 +28 +28 жарко 1015.4 992.9
16 15.06 З 5 20 км н/о +29.1 +4.5 21 +27 +27 жарко 1015.2 992.7
17 15.06 З 3 20 км н/о +28.8 +3.6 20 +27 +27 жарко 1015.2 992.7
18 15.06 З 4 20 км н/о +28.0 +1.5 18 +26 +26 жарко 1015.5 992.9 +29.2
19 15.06 З 3 20 км н/о +25.6 +2.9 23 +24 +24 комфорт 1016.3 993.5
20 15.06 З 2 20 км н/о +22.9 +4.4 30 +23 +23 комфорт 1016.9 993.9
21 15.06 З 2 20 км н/о +21.6 +5.5 35 +22 +22 комфорт 1018.0 994.9
22 15.06 Ю 2 20 км н/о +19.2 +6.6 44 +20 +20 1019.1 995.8
23 15.06 ЮЗ 3 20 км н/о +17.8 +11.1 65 +18 +18 1019.9 996.5
00 16.06 З 2 17 км н/о +17.2 +12.7 75 +18 +18 1020.3 996.9
01 16.06 СВ 2 18 км н/о +15.8 +11.4 75 +16 +16 1020.8 997.2
02 16.06 С 2 17 км н/о +15.2 +12.0 81 +15 +15 1020.8 997.2
03 16.06 СВ 2 13 км н/о +14.7 +12.2 85 +15 +15 1020.6 997.0
04 16.06 СВ 2 12 км н/о +14.5 +12.4 87 +14 +14 1020.7 997.0
05 16.06 СВ 2 10 км н/о +14.1 +12.3 89 +14 +14 1020.9 997.2
06 16.06 СВ 2 15 км н/о +16.2 +12.6 79 +17 +17 1021.1 997.6 +14.0
07 16.06 СВ 2 18 км н/о +18.2 +12.9 71 +19 +19 1021.2 997.8
08 16.06 З 1 20 км н/о +20.5 +13.0 62 +24 +24 комфорт 1021.1 997.9
09 16.06 ЮЗ 2 20 км н/о +22.7 +12.6 53 +25 +25 комфорт 1020.8 997.8
10 16.06 ЮЗ 2 20 км н/о +24.2 +10.1 41 +25 +25 комфорт 1020.1 997.2
11 16.06 ЮЗ 2 19 км н/о +25.9 +9.3 35 +26 +26 жарко 1019.5 996.7
12 16.06 ЮЗ 2 20 км н/о +27.4 +7.3 28 +27 +27 жарко 1018.6 996.0
13 16.06 ЮЗ 3 19 км н/о +29.0 +7.5 26 +28 +28 жарко 1017.5 995.0
14 16.06 Ю 2 20 км н/о +29.7 +7.0 24 +29 +29 жарко 1016.5 994.1
15 16.06 С 2 20 км н/о +30.2 +4.7 20 +28 +28 жарко 1015.7 993.3
16 16.06 СЗ 2 20 км н/о +30.6 +5.1 20 +29 +29 жарко 1015.0 992.7
17 16.06 ЮЗ 2 20 км н/о +30.0 +11.0 31 +30 +30 жарко 1014.8 992.5
18 16.06 Ю 4 20 км н/о +27.3 +12.1 39 +31.2
19 16.06 Ю 2 20 км н/о +25.1 +12.3 45 +27 +27 жарко 1015.4 992.7
20 16.06 ЮЗ 3 20 км н/о +22.8 +11.8 50 +25 +25 комфорт 1016.0 993.1
21 16.06 ЮЗ 2 20 км н/о +21.5 +11.2 52 +23 +23 комфорт 1016.7 993.7
22 16.06 СВ 2 20 км н/о +20.2 +11.7 58 +23 +23 комфорт 1017.1 994.0
23 16.06 СВ 2 20 км н/о +18.7 +11.7 64 +20 +20 1017.0 993.8

 

Местоположение метеостанции Лерида (Испания): широта 41.63 долгота 0.60 высота над уровнем моря 199 м.

В архиве по умолчанию представлена погода в Лериде за последнюю неделю. Архивные данные за месяц целиком и за предыдущие месяцы, начиная с января 2011 года, Вы можете получить, выбрав интересующий диапазон дат из раскрывающегося списка и нажав кнопку "Ввод!".


*Определитесь, кто Вы:
робот инопланетянин человек

Внимание! Время в таблицах - всемирное. Для получения местного времени необходимо прибавить поправку, которая равна 1 ч.

Смотрите также архив погоды в соседних городах и на ближайших метеорологических станциях:

Погода в Тарреге (Испания) (46 км)
Погода в Таларе (Испания) (68 км)
Погода в Каспере (Испания) (71 км)
Погода в Реусе (Испания) (72 км)
Погода в Вандельосе (Испания) (78 км)
Погода в Альканьисе (Испания) (89 км)
Погода в Тортосе (Испания) (90 км)
Погода в Каланде (Испания) (103 км)
Погода в Манресе (Испания) (104 км)
Погода в Барселоне Сант-Жауме (Испания) (105 км)

Пояснения к столбцам:

Ветер - указаны скорость ветра в м/с - средняя за 10 мин, порывы в срок и между сроками (в фигурных скобках) и направление, откуда дует ветер: С - северный, СВ - северо-восточный, В - восточный, ЮВ - юго-восточный, Ю - южный, ЮЗ - юго-западный, З - западный, СЗ - северо-западный.
Видимость - горизонтальная дальность видимости в метрах или километрах. При видимости от 1 до 10 км при отсутствии осадков обычно наблюдается дымка, при ухудшении видимости до 1 км и менее - туман. В сухую погоду видимость может ухудшаться дымом, пылью или мглою.
Явления - указаны атмосферные явления, наблюдавшиеся в срок или в последний час перед сроком; фигурными скобками обозначены явления, наблюдавшиеся между сроками (за 1-3 часа до срока); квадратными скобками обозначены град или гололедные отложения с указанием их диаметра в мм.
Облачность - указаны через наклонную черту общая и нижняя облачность в баллах и высота нижней границы облаков в метрах; квадратными скобками обозначены формы облаков: Ci - перистые, Cs - перисто-слоистые, Cc - перисто-кучевые, Ac - высококучевые, As - высокослоистые, Sc - слоисто-кучевые, Ns - слоисто-дождевые, Cu - кучевые, Cb - кучево-дождевые. Подробнее классификацию облаков см. в Атласе облаков (PDF).
T - Температура воздуха - температура, измеренная на высоте 2 м над землей.
Td - Температура точки росы - температура, при понижении до которой содержащийся в воздухе водяной пар достигнет насыщения.
f - Относительная влажность воздуха - влажноcть воздуха, измеренная на высоте 2 м над землей.
Te - Эффективная температура - температура, которую ощущает одетый по сезону человек в тени. Характеристика душности погоды. При расчете учитывается влияние влажности воздуха и скорости ветра на теплоощущения человека.
Tes - Эффективная температура на солнце - температура, которую ощущает человек, с поправкой на солнечный нагрев. Характеристика знойности погоды. Зависит от высоты солнца над горизонтом, облачности и скорости ветра. Ночью, в пасмурную погоду, а также при ветре 12 м/с и более поправка равна нулю.
P - Атмосферное давление - приведенное к уровню моря атмосферное давление.
Po - Атмосферное давление - измеренное на уровне метеостанции атмосферное давление.
Tmin - Минимальная температура - минимум температуры воздуха на высоте 2 м над землей.
Tmax - Максимальная температура - максимум температуры воздуха на высоте 2 м над землей.
R - Количество осадков - Количество выпавших осадков за период времени, мм. При наведении курсора мыши на число - период времени, за который выпало указанное количество осадков.
R24 - Количество осадков - Количество выпавших осадков за 24 часа, мм.
S - Снежный покров - Высота снежного покрова, см. При наведении курсора мыши на число - состояние снежного покрова и степень покрытия местности в баллах.